Gefundene Sportergebnisse Reiter: Klaus HERNLER (AUT)

hoeveler tierfutter Verkauf von Dressurpferden aus Hannoveraner Zucht ZG Koehler
Benutzerdefinierte Suche


Teilnahme von

Klaus HERNLER (AUT)


an Turnieren
 


 www.reitturnier-news.de

Gesucht wurde in reitturnier-news.de nach:


Reiter Pferde Ort
25.10 13:09:10 SUHAIB25.10 13:09:09 Foneda25.10 13:09:04 miuchelle
25.10 13:09:05 lpke-narberhaus, iris25.10 13:09:08 Rayman 1425.10 13:09:00 uelzen hansen
25.10 13:09:04 peer van dries25.10 13:09:02 Rabina 2825.10 13:08:52 Ubbedissen
25.10 13:09:03 berndt, anneke25.10 13:08:59 ferdi25.10 13:08:51 adresse oberkaufungen
25.10 13:09:03 Wolf, Inka25.10 13:08:49 Wondergirl - DK25.10 13:08:44 Annika WittigImroth
25.10 13:09:02 saghir diana25.10 13:08:36 faktor25.10 13:08:43 Geseke
25.10 13:09:02 Pieter-Jan MERTENS (BEL)25.10 13:08:36 Ilano 1325.10 13:08:40 zoltingen 2011
25.10 13:08:58 jurisch Anna25.10 13:08:15 Witzbolt25.10 13:08:33 Aschendorf
25.10 13:08:57 abels, Jasmin25.10 13:08:12 Feivel 17225.10 13:08:31 turnier moritzburg
25.10 13:08:54 Daniel SIMON (FRA)25.10 13:08:11 wolga25.10 13:08:30 esen
25.10 13:08:51 Stichel, Nicole25.10 13:07:31 Platina 3225.10 13:08:09 bonn gut
25.10 13:08:50 sören von werder25.10 13:06:48 apoll25.10 13:07:56 Ratingen G
25.10 13:08:49 Heyll, Aenne-Lina25.10 13:06:21 Bronko25.10 13:07:56 reitturnier orlinghausen
25.10 13:08:48 oeltze-pollok, sylvia25.10 13:06:18 Proud Peppermind Boy25.10 13:07:54 Weyhe-Lahausen 15-16
25.10 13:08:47 Poburski, Hanna Yvonne25.10 13:06:03 dui finn25.10 13:07:38 Dinslaken hiesfeld
25.10 13:08:46 Wassner, Vanessa25.10 13:05:44 Carolinus25.10 13:07:35 Nieder-Florstadt
25.10 13:08:46 tesch, felicitas25.10 13:05:15 Wincenta 725.10 13:07:32 Geseke-H
25.10 13:08:45 madeleine pannier25.10 13:05:13 Twister 5525.10 13:07:21 magna rasina
25.10 13:08:43 scheller, josefine-viktoria25.10 13:03:30 winner25.10 13:07:09 Ellwangen-Rindelbach
25.10 13:08:42 Tracey LEIGH (AUS)25.10 13:03:23 Robin 31625.10 13:06:50 Stroehn
25.10 13:08:42 Düring, Karolin25.10 13:02:57 Quentus25.10 13:06:48 reitturnierschwanewede
25.10 13:08:40 albrecht, grit25.10 13:02:39 Bleu Print25.10 13:05:43 reitturnier hildesheim-steuerwald
25.10 13:08:38 Ebert-Erkens, Brigitte25.10 13:02:38 Comtess 12425.10 13:05:33 Eversfelde
25.10 13:08:34 Zitzer25.10 13:02:30 Pitchune de Rozel25.10 13:05:25 zobbenitz 2003
25.10 13:08:27 Schon, Claudia25.10 13:01:19 dolyta25.10 13:05:22 41 Länder
25.10 13:08:25 karin donhauser25.10 13:01:04 Verelst-Concreto25.10 13:05:02 linslerhof dressurturnier
25.10 13:08:09 melanie knüfing25.10 13:00:21 The first Tramuser25.10 13:05:01 Reichenbach Hochdorf
25.10 13:08:06 WEINHöPL, VERENA25.10 12:59:55 MIro25.10 13:04:59 Verden Aller
25.10 13:08:04 Jillian CROWLEY (AUS)25.10 12:59:26 Calantus 425.10 13:04:52 Haiger- Rodenbach
25.10 13:08:03 anita homann25.10 12:59:22 Lea M25.10 13:04:02 tuniere
25.10 13:08:03 hermann karchertreitturnier-news.de25.10 12:59:14 Elsaß25.10 13:04:01 perl sinz
25.10 13:08:01 lisa laier25.10 12:58:46 allerliebste25.10 13:04:00 bortfeld
25.10 13:08:00 Daniela Marschall25.10 12:58:18 Fifty four north25.10 13:03:56 einbeck-edemissen
25.10 13:07:58 caroline jekat25.10 12:58:14 Stilett 325.10 13:03:53 sontra
25.10 13:07:56 Tanja CHARON (GER)25.10 12:57:59 dinky25.10 13:03:53 soest epsingsen
25.10 13:07:54 RSG Eschede25.10 12:57:50 Brown Sugar 625.10 13:03:52 reitturnier-vechta
25.10 13:07:50 Reipert, Stella25.10 12:57:49 Dream of Schenkenberg25.10 13:03:52 Hüllhorst-Oberbauerschaft
25.10 13:07:46 schreiner marie elisa25.10 12:57:34 Davina 10725.10 13:03:51 tv m
25.10 13:07:44 Williams, Scarlett25.10 12:57:09 Wyona Princess25.10 13:03:45 hunteburg 20101
25.10 13:07:43 Weppe, Janina25.10 12:57:00 Louigi 325.10 13:03:42 kreistunier volmarstein
25.10 13:07:42 Biesenbach, Roland25.10 12:56:15 Sympatico25.10 13:03:42 reitturnier vo
25.10 13:07:35 tilchner, Anja25.10 12:56:07 Luise 6725.10 13:03:40 stutenschau hamm
25.10 13:07:35 homp,25.10 12:55:35 Goldyka25.10 13:03:38 rv essen-byfang
25.10 13:07:27 poelman25.10 12:55:25 the alchemist25.10 13:03:36 kreismeisterschaften k
25.10 13:07:23 pia marie schroeder25.10 12:55:17 paolino25.10 13:03:27 reittunier springe
25.10 13:07:21 Biebow, Lauritz25.10 12:55:05 Whoopy25.10 13:03:16 Wuppertal-Ronsdorf
25.10 13:07:19 bianca l25.10 12:55:04 Jonas 06625.10 13:03:07 Kurtscheid
25.10 13:07:11 Leticia FALSI (BRA)25.10 12:54:58 ignatz25.10 13:03:01 Papenburg
25.10 13:07:07 Turbing, Jana25.10 12:54:44 Within Temptation25.10 13:02:55 eitdorf lindscheid
25.10 13:07:06 winkler, Christina25.10 12:54:42 Cobain25.10 13:02:51 spingturnier
25.10 13:07:06 Sohlbach, Melissa25.10 12:54:04 Solong25.10 13:02:50 Reittunier Gro
25.10 13:07:06 goeken lena25.10 12:53:51 Quincy 13125.10 13:02:45 reittunierwittlich
25.10 13:07:05 Storr, AnnKathrin25.10 12:53:20 ligano q25.10 13:02:42 waldbredimus
25.10 13:07:04 grimm, marie-louise25.10 12:53:17 Giglbergs Dragonfly25.10 13:02:36 Bad Dürkheim
25.10 13:07:04 Dahlweg, Anne25.10 12:53:15 Maximo 325.10 13:02:30 Laab im
25.10 13:07:02 Wiebke Suske25.10 12:53:15 loreo s25.10 13:02:18 Warmeloh
25.10 13:07:00 yrj25.10 12:52:54 Amethist25.10 13:02:15 Ellwangen-R
25.10 13:07:00 Thomas Teufel25.10 12:52:53 corporal finn25.10 13:02:12 Timmel
25.10 13:06:55 Arndt, Lisa25.10 12:52:14 Corrado s Comtesse25.10 13:02:07 Ammersbek
25.10 13:06:58 jürgen bilgeri25.10 12:52:08 Da Lontano25.10 13:02:02 Mildstedt
25.10 13:06:53 Blake POTTER (USA)25.10 12:51:53 mona lisa des hayettes25.10 13:01:51 dickenberger Reitunier
25.10 13:06:46 Thomas FR25.10 12:51:37 Nimmera25.10 13:01:51 Reitverein Do.Brechten
25.10 13:06:40 federkiel, kathrin25.10 12:51:35 Cecon 225.10 13:01:51 Lilienthal
25.10 13:06:12 STEPHANE COME (FRA)25.10 12:51:10 Lady Weingart25.10 13:01:50 exter
25.10 13:06:11 Miss mara25.10 12:50:37 Ninifee 2825.10 13:01:41 havekost 2010
25.10 13:06:10 JASSIM MOHAMMED MALALLA (BRN)25.10 12:50:33 Welano 1025.10 13:01:37 Büttstedt
25.10 13:05:51 pflüger, julia25.10 12:50:28 Farinesco25.10 13:01:34 Nettetal
25.10 13:05:46 Zolt25.10 12:50:23 Little Grazy 225.10 13:01:33 Schwentinental OT
25.10 13:05:46 fabian k25.10 12:50:17 leo8625.10 13:01:33 Bodensee 18
25.10 13:05:43 Clementine DE ROMBLAY (FRA)25.10 12:49:46 Chim 225.10 13:01:29 Uetz
25.10 13:05:41 Meyer, Miriam25.10 12:49:42 Lord-Star25.10 13:01:27 GROSS -
25.10 13:05:40 Weber, Laura sofie25.10 12:49:35 clodine25.10 13:01:21 Wolfsburg
25.10 13:05:36 Diana ORIGGI (ITA)25.10 12:49:28 Lemony Snicket 325.10 13:01:17 zeiteinteilung dom
25.10 13:05:34 wecke, chritsine25.10 12:49:19 Con Pleasure 225.10 13:01:15 Reitturnier Herzlake
25.10 13:05:33 Rabe, Beatrice25.10 12:48:43 Denny Crane25.10 13:01:14 knotte niederbr
25.10 13:05:32 Stark, Julia25.10 12:48:40 Charlie Rivel WE25.10 13:01:08 PZRFV Friedewalde
25.10 13:05:32 Luginger25.10 12:48:34 Kaskadeur 2125.10 13:01:06 Pölzig
25.10 13:05:31 Prochaska, Yvonne25.10 12:48:07 Quidams Lena25.10 13:01:01 Piesinger Au
25.10 13:05:30 sann, jennifer25.10 12:47:49 Littlefoot 2225.10 13:01:01 Dom-Esch reitturnier
25.10 13:05:29 Veronika GYLTHE (NOR)25.10 12:47:35 Cavalido25.10 13:00:59 Reitturnier Eggermühlen
25.10 13:05:28 Dresen, Sandra25.10 12:47:18 Karminari25.10 13:00:55 Freispringen 2011
25.10 13:05:28 Westner, Katharina25.10 12:47:10 La Bonita 5025.10 13:00:54 Neustadt/Aisch
25.10 13:05:26 Warbruck, Julia25.10 12:46:58 nordfriese25.10 13:00:48 Lahr Langenwinkel
25.10 13:05:26 Maier, Werner25.10 12:46:56 Wilandra25.10 13:00:47 Reitverein harsefeld
25.10 13:05:24 Zenker Katharina25.10 12:46:16 bagge af boo25.10 13:00:41 Großbrüchter
25.10 13:05:23 Wellner, Sandra25.10 12:46:15 fanzara FB DE 44141060570425.10 13:00:35 Reitturnier Herbern
25.10 13:05:21 Utz, Sophia25.10 12:46:03 Charline 2125.10 13:00:31 kamen
25.10 13:05:17 MUBARAK HAMAD AL QASHOUTI25.10 12:45:47 Esther 16225.10 13:00:27 fahrsport zweispänner
25.10 13:05:17 Schnitzer, Lea25.10 12:45:46 Cillarney25.10 13:00:19 Heilbronn
25.10 13:05:14 Ron, Neta25.10 12:45:44 gwendolyn25.10 13:00:08 mühlacker
25.10 13:05:12 Diller, Ann-Kathrin25.10 12:45:35 Charlie 2125.10 12:59:54 Kreismeisterschaft vom
25.10 13:05:11 jette clau25.10 12:45:32 JL s Jumping Butterfly25.10 12:59:51 Rielasingen Worblingen
25.10 13:05:10 Könsgen25.10 12:45:21 Leandra von Lear25.10 12:59:49 WBO RG77
25.10 13:05:09 Dreyer,Ramon25.10 12:45:03 Queen Merac25.10 12:59:48 Kaiserslautern /
25.10 13:05:08 gerken, beate25.10 12:44:57 Piro 2025.10 12:59:43 Rheine-Mesum
25.10 13:05:08 Schmitz, Kerstin25.10 12:44:52 lordsohn25.10 12:59:39 turnier witzmannsberg
25.10 13:05:07 Sargasser25.10 12:44:46 Kintano25.10 12:59:39 Schwarzh
25.10 13:05:06 Clausen, Stefanie25.10 12:44:42 0393 Shakira 43225.10 12:59:38 turniern rosenfeld
25.10 13:05:06 Wittkowski, Mona25.10 12:44:25 rubens 13025.10 12:59:38 LAHNAU -
25.10 13:05:04 Driks, Nina Maria25.10 12:44:17 don elfredo lena berwe25.10 12:59:37 reittunier kloppenheim
25.10 13:05:03 fegg25.10 12:44:15 valentin 8625.10 12:59:36 Jugendverg
25.10 13:05:01 meike m25.10 12:44:08 Eisbär 425.10 12:59:36 Zülpich-Enzen
25.10 13:05:01 Dahms, Bettina25.10 12:43:59 Chingachgook 425.10 12:59:35 Friedrichshafen -
25.10 13:04:59 Anna-Katharina VOGEL (GER)25.10 12:43:55 Leopardine25.10 12:59:33 sommerturnier engter
25.10 13:04:59 Postels, Verena25.10 12:43:51 darina vor ever25.10 12:59:30 Putlitz
25.10 13:04:57 Jger, Horst Jun25.10 12:43:37 QUAKING ALDER XX25.10 12:59:26 weddingstedt 2010
25.10 13:04:57 Hellwig, Malin25.10 12:43:11 Ascandio25.10 12:59:24 Wülfrath-Flandersbach
25.10 13:04:56 Duschl, Barbara25.10 12:42:58 Aletto25.10 12:59:09 Zoltingen/Schw
25.10 13:04:55 Heidelberg, Sophie25.10 12:42:31 warko25.10 12:58:56 brambauer
25.10 13:04:54 nicole stichel25.10 12:42:20 hot spirit25.10 12:58:49 schönemoor
25.10 13:04:51 Schuler, Rebecca25.10 12:42:07 Ninifee25.10 12:58:47 Lathen
25.10 13:04:51 tanja funk25.10 12:42:04 Drogadero25.10 12:58:41 tann niederbayern
25.10 13:04:50 glashauser silvia25.10 12:41:58 NiViPaDo Inself25.10 12:58:40 Reitturnierprogramm
25.10 13:04:49 Weisermel,25.10 12:41:54 Little Liberty 1025.10 12:58:38 Hasel
25.10 13:04:47 Kuschel, Dana25.10 12:41:50 lexus 6325.10 12:58:36 Sachsen
25.10 13:04:47 Weber, Lisa25.10 12:41:37 Just Unforgetable Fire25.10 12:58:33 Reitturniere Neuwied
25.10 13:04:40 Ostrowski, Samantha25.10 12:41:23 Le Grande25.10 12:58:31 reittunier borken
25.10 13:04:36 TERESA LOZANO MUGUIRO (ESP)25.10 12:41:20 sarah schmitz25.10 12:58:25 Lusshof-Laupheim
25.10 13:04:35 Nachbaur, Claudia25.10 12:41:04 Bela25.10 12:58:21 Reichenberg/Ufr
25.10 13:04:35 Jepp25.10 12:40:56 askan 44825.10 12:58:20 Otterfing
25.10 13:04:33 urwg25.10 12:40:36 Chilipepper S25.10 12:58:19 Of-Rumpenheim Goldockerhof
25.10 13:04:32 Aline Menge25.10 12:40:32 Caimari G25.10 12:58:16 Mastholte Sommerturnier
25.10 13:04:30 Reiners25.10 12:40:27 Sensation 2725.10 12:58:03 Langenleuba-Oberhain
25.10 13:04:29 Reckers, Sarah25.10 12:40:16 Rissani25.10 12:57:57 Auerbach/Opf.
25.10 13:04:28 Tae SATO (JPN)25.10 12:39:59 Dasina 425.10 12:57:52 Etelsen/Berkelsmoor
25.10 13:04:26 Schnorrbusch, Rebecca25.10 12:39:43 Laegomio25.10 12:57:41 RC Konstanz
25.10 13:04:26 Lisa-Marie Semmele25.10 12:39:37 Pink Poker Pony25.10 12:57:37 grosschirma
25.10 13:04:26 frahm, christoph25.10 12:39:29 Skyboy 225.10 12:57:36 Mertingen Donauwörth
25.10 13:04:24 Susan BOURASSA (USA)25.10 12:39:27 Weinstein 1225.10 12:57:35 marlow
25.10 13:04:24 hienstorfer shirina25.10 12:39:10 Nobby25.10 12:57:30 Willicher Reitertage
25.10 13:04:16 Lindwehr25.10 12:38:58 Donauprints25.10 12:57:27 wassel
25.10 13:04:07 Noll, Katharina25.10 12:38:55 sir liberty25.10 12:57:13 tübingen landeschampionat
25.10 13:04:06 daniela götze25.10 12:38:08 enrico 22025.10 12:57:11 georgmarienh
25.10 13:04:04 Thies, Mareike25.10 12:37:23 DoriaDay25.10 12:57:08 reitturnier sittensen
25.10 13:04:04 messerschmidt fabian25.10 12:37:13 Silbersees pam25.10 12:57:07 straubing s
25.10 13:03:50 dasbach, nina25.10 12:37:00 Fidenza25.10 12:57:02 Neuhof
25.10 13:03:44 Sindermann, Emma Julie25.10 12:36:31 Fantastic Girl HD25.10 12:57:00 reitturnier du
25.10 13:03:42 Gribbe,Markus25.10 12:36:23 riccione25.10 12:56:57 sauterlach
25.10 13:03:37 Waldhauser, Rebecca25.10 12:36:04 Jamiro Rosso25.10 12:56:55 monheim-kreut
25.10 13:03:33 Lfken, Christiane25.10 12:35:43 Famagusta 325.10 12:56:52 Marktoberdorf/Schw
25.10 13:03:30 Frutiger, Daniela25.10 12:35:38 ajaccio 825.10 12:56:49 gut isingen
25.10 13:03:27 Luer25.10 12:35:37 Pefferminza25.10 12:56:48 oberschwaben cup
25.10 13:03:24 Dieckmann, Britta25.10 12:35:27 quinars rubin25.10 12:56:46 Sieger Berg
25.10 13:03:16 beerhenke, j25.10 12:35:09 Enchanted25.10 12:56:44 dressurturnier nabben
25.10 13:03:15 MOHAMMED ABDULLAH ALSHEHRY (KS25.10 12:34:59 Don Carlos 12625.10 12:56:41 Freiburg
25.10 13:03:14 Rübe25.10 12:34:39 Washington 14325.10 12:56:36 Hxter 25.02.2012
25.10 13:03:11 emil ketz25.10 12:34:17 Quincy 13725.10 12:56:36 Pfingstturnier Rimbach
25.10 13:03:08 LRFV Eiskeller e.V.25.10 12:33:48 Clever 825.10 12:56:28 Baindt
25.10 13:03:07 sonja kögler scheck25.10 12:33:03 Quatergirl P25.10 12:56:19 Merzig-Ballern
25.10 13:03:05 Karolin Ackermann25.10 12:32:58 Hydepark25.10 12:56:12 Beckum- Unterberg
25.10 13:03:05 Sanders, Nele25.10 12:32:35 Glenn Miller 4425.10 12:56:05 chevenez
25.10 13:03:05 schepp annkathrin25.10 12:32:26 Senior Rossi25.10 12:56:02 selsingen tunier
25.10 13:02:54 maoro, sina25.10 12:31:52 Connor 5225.10 12:56:01 kamp-lintfort
25.10 13:02:52 zehnder eva25.10 12:31:49 ESMERALDA DEL LECCIONE25.10 12:55:57 Billerbeck
25.10 13:02:52 diez, dorothea25.10 12:31:32 Sirius 12125.10 12:55:47 Gulow-Steinberg
25.10 13:02:48 Steigauf,Bj25.10 12:31:28 Dacanto25.10 12:55:40 Geilenkirchen -
25.10 13:02:46 Fabel25.10 12:30:55 Westlee25.10 12:55:22 mettingen 2012
25.10 13:02:44 Wurm, Nadine25.10 12:30:23 lord of dance 625.10 12:55:21 Badenia Mannheim
25.10 13:02:43 jugendtunier in m25.10 12:29:56 Landiamo 625.10 12:55:19 holz-bunge
25.10 13:02:42 Taina K25.10 12:29:14 Leticia du Bois25.10 12:55:18 reitverein königsbrunn
25.10 13:02:40 Salzburg Lisa25.10 12:28:11 Grand Coeur 3625.10 12:55:16 bensheim-schwanheim
25.10 13:02:36 Selim DEJBLI (ALG)25.10 12:27:58 Juventus Lady25.10 12:55:15 Dingolfing/Ndb.
25.10 13:02:36 Gayl25.10 12:27:30 Atachi 325.10 12:55:13 RV Nu
25.10 13:02:28 Christian LISSARRAGUE (FRA)25.10 12:27:24 Checky bay roan25.10 12:55:10 Neuenkirchen-Melle
25.10 13:02:26 jessica ristl25.10 12:26:09 Antecello25.10 12:55:02 freyenstein
25.10 13:02:21 Tina G25.10 12:26:07 Figlio25.10 12:54:58 sighartstein
25.10 13:02:20 Torsten T25.10 12:26:03 Essan 225.10 12:54:56 rehagen2012
25.10 13:02:17 francesco PILATI (ITA)25.10 12:25:46 Pablos Pleasure25.10 12:54:54 Ergebnisse Westfalenmeisterschaft
25.10 13:02:10 Catterfeld, Lucille Marie25.10 12:25:11 Rondo Veneziano 5625.10 12:54:50 Stutensee-Friedrichstal
25.10 13:02:05 betz, jule25.10 12:25:04 Kanzler Klaus25.10 12:54:44 tirschenreuth 2012
25.10 13:02:04 Lea Hofmann25.10 12:24:37 CoCo Granna25.10 12:54:30 bad-homburg fichtenhof
25.10 13:02:02 Tajdus, Viktoria25.10 12:24:09 Melodie T25.10 12:54:29 Bochum Wattenscheidt
25.10 13:01:52 Trauzold, Lena25.10 12:23:59 Brooklyn 1325.10 12:54:22 Kronberg -
25.10 13:01:48 lieke swager25.10 12:22:55 Krack c25.10 12:54:19 Eggebek
25.10 13:01:46 Reichling, Anna Lena25.10 12:22:08 Lortino25.10 12:54:17 Heiligenrode
25.10 13:01:39 Isabel EDMUNDSON (GBR)25.10 12:22:02 Eaubonne25.10 12:54:14 neukirchen-salchendorf
25.10 13:01:37 Schnellbach,Marcel25.10 12:21:51 Grace GE25.10 12:54:00 Niederoberbach/Mfr
25.10 13:01:37 Rob Mathias25.10 12:21:04 United25.10 12:54:00 Zeiskamp
25.10 13:01:36 Kox25.10 12:20:45 Levaljano B25.10 12:53:45 Bad Füssing/Ndb
25.10 13:01:25 mathias kuhlmann25.10 12:20:31 Campus 2425.10 12:53:40 gut waldhof
25.10 13:01:21 sabrina sgodzaj25.10 12:20:15 lucky luke r225.10 12:53:36 Annemarie
25.10 13:01:17 Catalin COSMICI (ITA)25.10 12:20:15 Acovibu25.10 12:53:35 Kreuztal
25.10 13:01:16 meylemanns, miriam25.10 12:20:07 Gretje25.10 12:53:35 Borghorst
25.10 13:01:13 Stegemann, Heike25.10 12:18:22 Actros R25.10 12:53:30 marbach lauter
25.10 13:01:12 heise, torsten25.10 12:16:39 Chelsey 925.10 12:53:30 reitturnier langenau
25.10 13:01:12 Cindy Schneider25.10 12:16:01 Pirocco25.10 12:53:21 Bayreuth-F
25.10 13:01:11 kamieth, anni25.10 12:15:51 Rosenstolz 10825.10 12:53:14 dressur-turnier.startlisten,pferdehof besold,k
25.10 13:01:09 Messerschmidt, Lena25.10 12:15:31 Conpheron25.10 12:53:11 Ohlstadt 2013
25.10 13:01:08 Preymesser Tina25.10 12:15:22 Montmatre25.10 12:53:10 reitturnier am
25.10 13:01:06 Taylor STEPHENS (USA)25.10 12:15:14 Baloubetta du soleil25.10 12:53:09 helmhof
25.10 13:01:01 Dominik Samter25.10 12:15:07 Del mondo25.10 12:53:07 ergebnisse gelsenkirchen
25.10 13:01:05 Danowski, Hannah25.10 12:14:24 Elsurumu W25.10 12:53:07 bad driburg
25.10 13:01:04 lea wiest25.10 12:14:10 Sig25.10 12:53:05 fahrtzrnier
25.10 13:01:02 markworth, florentine25.10 12:13:21 Pilahr25.10 12:53:05 reitturnier langenhagen
25.10 13:01:01 Jacqueline STR25.10 12:12:54 Belmont Chief xx25.10 12:53:04 niederwerrn
25.10 13:00:59 Grimm, Sabine25.10 12:12:50 Carlos Santana 1225.10 12:52:59 teupitz
25.10 13:00:58 Wiese, Barbara25.10 12:12:23 zarino 5125.10 12:52:49 Caldern/
25.10 13:00:55 Sara Thiele25.10 12:12:10 phöben 201325.10 12:52:48 Bergisch Gladbach-Herrenstrunden
25.10 13:00:47 Christina Sieber25.10 12:11:47 Tarisma25.10 12:52:42 Seizenhahn
25.10 13:00:46 Dörrfuß, Piroschka25.10 12:11:38 Marcello 13025.10 12:52:35 Hemer-Edelburg
25.10 13:00:44 Werner , Katrin25.10 12:11:38 Spooks25.10 12:52:30 Lippoldshausen,Reitanlage
25.10 13:00:42 LAETITIA GALINIER (FRA)25.10 12:11:32 Lehmann 825.10 12:52:29 Turnier Bersenbr
25.10 13:00:42 pilz, verena25.10 12:11:11 Ferragamo 1025.10 12:52:20 nice
25.10 13:00:39 Hindelang, Monika25.10 12:11:05 Dalina de Luxe 225.10 12:52:15 Bonheiden(BEL)
25.10 13:00:37 vanessa potrafke25.10 12:10:50 Goldstern 22525.10 12:52:14 reitturnier losheim
25.10 13:00:36 Stobbe, Leonie25.10 12:10:36 Ormelo25.10 12:52:06 dressurturnier nebanic
25.10 13:00:36 Willmann, Marietta Magdalena25.10 12:10:30 grazienna25.10 12:52:03 ich suche
25.10 13:00:35 harms,bianca25.10 12:10:10 Pinoccio 13325.10 12:51:50 Salzburg Indoors
25.10 13:00:33 krill melanie25.10 12:10:07 cassandro 5325.10 12:51:48 stara role
25.10 13:00:31 schuster, stephanie25.10 12:09:42 Carlito 3025.10 12:51:47 Luciana 106
25.10 13:00:27 Schmid, Hans25.10 12:09:20 Epona 4525.10 12:51:39 vierkampf in
25.10 13:00:24 Diedrich, Corinna25.10 12:09:14 Cyrano 8925.10 12:51:21 fränkisch crumbach
25.10 13:00:22 carina kuhn25.10 12:09:00 Milky twillight25.10 12:51:17 Pfingstturnier Gundernhausen
25.10 13:00:22 Dögel, Victoria25.10 12:07:53 Chicca-Blue25.10 12:51:14 langenbach weilm
25.10 13:00:15 pollmann25.10 12:07:51 goodman25.10 12:51:07 PSG Schweitzer
25.10 13:00:15 Volmering, Nicole25.10 12:07:28 davenport 2725.10 12:50:56 Hückelhoven Ratheim
25.10 13:00:14 zindel nicole25.10 12:07:25 Schoensgreen Hanni25.10 12:50:54 Karen Schnoor
25.10 13:00:13 Große-Geldermann, Julia25.10 12:07:20 ravalon25.10 12:50:54 herrenzimmen
25.10 13:00:10 Ruijter,25.10 12:07:08 Boreo25.10 12:50:39 zwikau
25.10 13:00:06 behr,25.10 12:07:06 Paradiesstern25.10 12:50:09 5.5.2012
25.10 13:00:05 federico CIRIESI (ITA)25.10 12:06:19 eskadron25.10 12:49:51 Turnier weiterstadt
25.10 13:00:05 Jessica Huber25.10 12:06:13 Zepp25.10 12:49:47 moorsele
25.10 13:00:03 siegfried, nadine25.10 12:05:19 Janosch T25.10 12:49:04 Burgkunstadt
25.10 12:59:59 SANTIAGO BERTOLTINI (URU)25.10 12:04:19 Caralady25.10 12:48:50 Scharnebecker himmelfahrtsturnier
25.10 12:59:54 janello tara25.10 12:04:09 Quinny de Revel25.10 12:48:46 Reittunier Nu
25.10 12:59:53 Olivier ROBERT (FRA)25.10 12:04:07 zip van25.10 12:48:26 breckerfeld b
25.10 12:59:43 Schoer, Christine25.10 12:03:45 Nellema25.10 12:48:16 Tillmanns in
25.10 12:59:41 Channel reinhardt25.10 12:03:15 Madrid 1825.10 12:48:02 Demanthsf
25.10 12:59:36 jana baranowski25.10 12:02:47 ray ban25.10 12:47:47 albert-vahle-halle 2011
25.10 12:59:35 rolf paulus25.10 12:01:42 SEASIDE25.10 12:47:45 aachen hanbruch
25.10 12:59:34 olaf metze25.10 12:01:19 Leon 54925.10 12:47:36 stutenleistungspr
25.10 12:59:33 behring, juliana joana25.10 12:00:56 baltic25.10 12:47:35 reitturnier wachtberg-oberbachem
25.10 12:59:31 ville palom25.10 12:00:45 lennart 925.10 12:47:32 Fahrturnier B
25.10 12:59:31 Reineke, Nina25.10 12:00:43 New Love25.10 12:47:31 Reichelsheim/
25.10 12:59:30 Zaidi, Anisha25.10 12:00:22 Delizius25.10 12:47:26 retiturnier
25.10 12:59:28 Schferhoff, Linda25.10 11:58:44 Whopper F25.10 12:47:25 amtzell
25.10 12:59:25 kammerloher melanie25.10 11:58:39 Luftikus 8225.10 12:47:22 mannheom
25.10 12:59:24 Dewes, Monika25.10 11:58:19 privo 225.10 12:47:09 Beiersdorf/Ofr.
25.10 12:59:23 petra poweleit25.10 11:57:52 Josie - B25.10 12:46:54 ergebniss rees
25.10 12:59:21 hellwig, isabella25.10 11:57:14 Los Landtino25.10 12:46:44 bissendorf 2013
25.10 12:59:20 oberste-lehn25.10 11:57:07 Acodetta 225.10 12:46:43 ravensburg
25.10 12:59:11 Nissen-Zichner, Inken25.10 11:57:04 Liquido 4725.10 12:46:42 reittunier münchehofe
25.10 12:59:09 singham25.10 11:56:16 Rubens 13125.10 12:46:38 Fuchshof HAsloh
25.10 12:59:06 iguchi,steffen25.10 11:56:09 Laurentia 1625.10 12:46:31 Oerlinghausen währentrup
25.10 12:58:57 Brönner-Poll, Bettina25.10 11:56:03 Fabelina25.10 12:46:24 Bordesholm
25.10 12:58:56 Welte, Tamara25.10 11:55:40 Carry 5525.10 12:45:52 Berg/Mfr.
25.10 12:58:56 ballhaus25.10 11:55:19 Crack Lady 225.10 12:45:38 Zucht- und
25.10 12:58:54 Weitkamp, Katharina25.10 11:55:16 Camiello25.10 12:45:38 Pferdemarkt in
25.10 12:58:52 teske, elisa25.10 11:54:51 Uccero 225.10 12:45:37 Kirrlach
25.10 12:58:51 lippemaier florian25.10 11:54:11 Romina Power 2425.10 12:45:35 essel 2010
25.10 12:58:51 vitoria eulner25.10 11:53:28 Chess 3625.10 12:45:34 reitturnier berlin-lichtenrade
25.10 12:58:50 Wagenseil, Verena25.10 11:53:24 taylor lucy25.10 12:45:34 reitertag pekum
25.10 12:58:49 Ortmann, Natascha25.10 11:52:45 Culo Caliente25.10 12:45:30 Rosenheim/Obb
25.10 12:58:48 Cayetano MARTINEZ DE IRUJO25.10 11:52:02 Marlow Markiz25.10 12:45:30 Caldern
25.10 12:58:48 Weikum, Victoria25.10 11:51:59 insterburg25.10 12:45:21 VS-Turnier Thierhaupten
25.10 12:58:48 feldhusen,25.10 11:51:51 glamour boy25.10 12:45:14 reinfeld hof
25.10 12:58:47 Sabine DUNKES (GER)25.10 11:51:49 Henri25.10 12:45:13 Bucha 27.09.2014
25.10 12:58:45 Schmalbach, Julia25.10 11:51:49 So wie Du25.10 12:45:13 RV Lindlar
25.10 12:58:45 Schulze Jochmaring, Karola25.10 11:51:36 von ilan25.10 12:45:12 Blomberg-Donop
25.10 12:58:44 Schaarschmidt, Lukas25.10 11:51:34 ascalon25.10 12:45:06 Vechta, Gramann
25.10 12:58:44 NATXO FERNANDEZ ROA (ESP)25.10 11:51:07 Lascavell25.10 12:45:00 ranzhofen
25.10 12:58:42 eiser, claudia25.10 11:50:45 Leopold 23725.10 12:44:54 gut
25.10 12:58:36 Thum, Laetizia25.10 11:50:42 Wonderboy 1425.10 12:44:52 st.p
25.10 12:58:35 Litschel25.10 11:50:35 Exciting Force25.10 12:44:49 mülheim
25.10 12:58:34 Claire GREGSON (GBR)25.10 11:50:18 Ascalan25.10 12:44:43 Diepersdorf Come
25.10 12:58:34 Stein Franziska25.10 11:50:03 contogo25.10 12:44:40 RV. Warstein
25.10 12:58:34 rissenthal 201025.10 11:49:34 Wunschtraum 8725.10 12:44:29 schoptmann
25.10 12:58:32 kotschulla eva25.10 11:49:33 Scaleti25.10 12:44:25 susi gut
25.10 12:58:32 Lindner, Andre25.10 11:49:30 Cunningham25.10 12:44:21 don elfredo
25.10 12:58:31 Conrady,Astrid25.10 11:48:58 Florestana 325.10 12:44:19 17.5.2013 geestenseth
25.10 12:58:29 TILP,GABRIELE25.10 11:48:28 Fruchtzwerg25.10 12:44:06 kerschlach
25.10 12:58:29 Simon WIDMANN (GER)25.10 11:48:26 Carlchen 4625.10 12:43:53 St. Georgen
25.10 12:58:17 rollwage,karl-henning25.10 11:47:35 Aronio25.10 12:43:51 april turnier
25.10 12:58:17 List, Brigitte25.10 11:47:23 elischer laura25.10 12:43:50 stall
25.10 12:58:16 roland staudenmaier25.10 11:47:16 Leonadro25.10 12:43:42 reitturnier bissendorf
25.10 12:58:15 Fänger, Christine25.10 11:47:10 Sir G25.10 12:43:29 erbesb
25.10 12:58:13 Hartschwager, Nadine25.10 11:46:53 bonaire b25.10 12:43:27 Finale
25.10 12:58:13 Penndorf, Sandra25.10 11:46:16 golden gate 12025.10 12:43:19 Hessisch-Lichtenau
25.10 12:58:10 Portmann, Julia25.10 11:45:27 Sanchez Diaz25.10 12:42:41 Berlin Blankenfelde
25.10 12:58:09 Schrankl Andreas25.10 11:45:18 dondolo 13825.10 12:42:24 Bremen-z
25.10 12:57:44 Seib-Glaszis, Corinna25.10 11:45:11 Wilson 6325.10 12:42:10 reitturnier 2011www.fn-neon.de/
25.10 12:57:42 Angermaier, Stefanie25.10 11:44:33 Crambambuli 325.10 12:42:01 Dörnhagen
25.10 12:57:38 Santa Luzia25.10 11:44:21 cando b25.10 12:41:55 Brande-
25.10 12:57:27 levka25.10 11:44:08 Askido 225.10 12:41:54 RA Stefansberg
25.10 12:57:24 Charles Henri FERME (FRA)25.10 11:44:00 ravell 14025.10 12:41:52 Horst-Horstm hle
25.10 12:57:19 Renzel, Markus - Equo-Reitsport25.10 11:43:58 Devie25.10 12:41:49 levershorst
25.10 12:57:18 herold julia25.10 11:43:57 Chaccolino 425.10 12:41:38 wangen 2011
25.10 12:57:14 kassel25.10 11:43:51 cassia 1325.10 12:41:36 bi- dornberg
25.10 12:57:05 praitler25.10 11:43:48 Caro h 225.10 12:41:23 Sunshine Tour
25.10 12:57:04 Dominic-Nathanael ERHART (GER)25.10 11:43:42 conrado 625.10 12:41:12 St.Leonhard B
25.10 12:57:03 Dengler, Judith25.10 11:43:34 Herzenswunsch 525.10 12:41:06 bispingen 17.08.2013
25.10 12:57:03 christin dunkel25.10 11:43:26 pattani25.10 12:40:51 holzen
25.10 12:57:01 Stefano MARELLI (ITA)25.10 11:43:21 glam slam25.10 12:40:48 frankentha
25.10 12:56:59 daniela hayn25.10 11:43:00 Magellan 3125.10 12:40:46 Reittunier Großlangheim
25.10 12:56:59 carry-ann25.10 11:42:59 Lynn Hydrock25.10 12:40:36 Pr.Oldendorf-Schr
25.10 12:56:55 Claudia Binder25.10 11:42:53 Akardo25.10 12:40:34 norden
25.10 12:56:53 falk, gesche25.10 11:42:51 coletta B25.10 12:40:27 hirschberg
25.10 12:56:47 zimmer alishia25.10 11:42:14 Acoruno25.10 12:40:26 elea
25.10 12:56:46 seidelmeyer, lisa25.10 11:41:53 Lord Looping25.10 12:40:22 Weltmeistershaft Einsp
25.10 12:56:42 wagner, lennart25.10 11:41:22 Alina 37125.10 12:40:00 haflinger
25.10 12:56:41 elsa graf25.10 11:40:13 All Inklusive 225.10 12:39:58 heidelberg
25.10 12:56:32 Wichmann, Hannes25.10 11:39:22 Zealand25.10 12:39:57 hamminkeln -t
25.10 12:56:31 Schmitter, Katrin25.10 11:37:38 Felicia 2625.10 12:39:50 trierweiler sirzenicher
25.10 12:56:31 Ralf Heffenberger25.10 11:37:32 casanta25.10 12:39:29 luckau
25.10 12:56:30 Schneidereit , Bernd25.10 11:37:30 Chippetto Dyckow25.10 12:39:24 batz hademarschen
25.10 12:56:30 nadine koza25.10 11:37:24 Baloudana25.10 12:39:20 besold st
25.10 12:56:19 isabelle paul25.10 11:37:16 cyra 7625.10 12:39:18 hamm rhynern
25.10 12:56:08 Alessandro GROSSATO (ITA)25.10 11:37:12 Grand pilot25.10 12:39:16 witzetze
25.10 12:55:57 julia Dobberthin25.10 11:36:54 Nordic Eye25.10 12:39:07 borghorster
25.10 12:55:55 Frischkorn, Paula25.10 11:36:38 Doolittle 5225.10 12:38:52 schanowski neuss
25.10 12:55:54 Dornmair-Buske, Antonie25.10 11:36:33 Crespo b25.10 12:38:49 Marbach /
25.10 12:55:50 Ihrig, Sabine25.10 11:36:32 trixi-tessin25.10 12:38:40 Lutzhorntunier
25.10 12:55:49 Deusser, sabrina25.10 11:36:28 Lehringen25.10 12:38:38 trail
25.10 12:55:47 manuela hess donatella m25.10 11:35:42 Ernford Grenadi25.10 12:38:37 turnier pelkum
25.10 12:55:41 Grobbel, Lena25.10 11:35:13 WORLDLY X COLAN25.10 12:38:06 victoria hörnke
25.10 12:55:39 Jankuvicz, Marian25.10 11:35:07 Lucca Toni 425.10 12:37:34 Turnier Holtensen
25.10 12:55:38 yvonne kirschbaum25.10 11:35:01 Validos Touch25.10 12:37:28 WIESBADEN
25.10 12:55:37 iguchi, steffen25.10 11:34:33 adriano bs25.10 12:37:25 DJM M
25.10 12:55:37 Brummer, Helga25.10 11:34:23 Habitus S25.10 12:37:23 wulfen
25.10 12:55:36 karns, florian25.10 11:33:08 Lavinya25.10 12:37:09 barockturnier marpingen
25.10 12:55:36 sandra moll25.10 11:33:03 Darius 43325.10 12:36:55 Ulm-Wiblingen
25.10 12:55:34 Gelhausen,25.10 11:32:59 Edeka25.10 12:36:50 grro
25.10 12:55:33 Brunzendorf, Daniela25.10 11:32:09 Gallileo25.10 12:36:43 dressur georgsmarienh
25.10 12:55:33 Victoria NORTON (GBR)25.10 11:31:43 Charmings Aura25.10 12:36:43 reitturnier nrw
25.10 12:55:31 Mahlknecht, Christian25.10 11:31:35 CATANIA 7625.10 12:36:27 Retturnier M
25.10 12:55:29 Schaber, Ann-Kathrin25.10 11:30:43 Rilana 5725.10 12:36:09 branderhof 2009
25.10 12:55:26 scheiper25.10 11:30:39 Rocket Ramira25.10 12:35:52 ,lengenfeld
25.10 12:55:25 Vomm,25.10 11:30:27 Donaldinio H25.10 12:35:43 brechten
25.10 12:55:24 Schubarth25.10 11:29:16 Captain jack sparrow25.10 12:35:30 Eschweiler-Dürwiß
25.10 12:55:20 blumenberg, meike25.10 11:29:09 Guardian Angel 1525.10 12:35:20 reitanlage buchholz
25.10 12:55:19 emmers judith tindorette25.10 11:28:51 finale filou25.10 12:35:16 Turnier 4
25.10 12:55:18 sylva heise25.10 11:28:47 Topi L25.10 12:35:11 fantasia
25.10 12:55:15 julia brehm25.10 11:28:30 Space25.10 12:35:10 pferdemarkt schw
25.10 12:55:14 schindel25.10 11:27:27 dunja hill25.10 12:35:09 rodheim
25.10 12:55:12 Görls,Lisa-Marie25.10 11:26:58 Mirror 225.10 12:34:55 Lippborg-Unterberg
25.10 12:55:11 Luca25.10 11:26:47 top gismo25.10 12:34:39 Tittmoning 2010
25.10 12:55:09 frank nitsche25.10 11:26:46 Felino 2625.10 12:34:36 USINGEN
25.10 12:55:08 jacqueline kupzog25.10 11:26:26 Senior Joel25.10 12:34:34 Turnier Bernkastel-Kues
25.10 12:55:04 Kronthaler, Michaela Veronika25.10 11:26:09 For Darc25.10 12:34:34 gardebusch
25.10 12:55:00 rebecca linnig25.10 11:25:50 Cornell 1725.10 12:34:34 salzgitter
25.10 12:54:59 gusche, jochen25.10 11:25:41 Vincenzo 825.10 12:34:27 reitturniereppelheim
25.10 12:54:56 Villwock, Dagmar25.10 11:25:38 Wolke 33925.10 12:33:50 RV Bierde-Lahde-Neuenknick
25.10 12:54:56 Dreyer, Franziska25.10 11:25:30 Coronina Electra25.10 12:33:34 reittunier belm
25.10 12:54:54 Schotzer, Ingo25.10 11:25:26 Sir Landpilot25.10 12:33:33 Deutsche
25.10 12:54:51 nina appold25.10 11:25:11 Fraxinus 225.10 12:33:31 isernhagen 2008
25.10 12:54:49 fabienne boese25.10 11:24:45 Avellino 5025.10 12:33:31 mausdorf 2011
25.10 12:54:47 Rohlmann Christa25.10 11:24:35 vicky victory25.10 12:33:28 wedel catharinenhof
25.10 12:54:46 West Birgitt25.10 11:24:01 Rebell 56725.10 12:33:27 Aalst(BEL)
25.10 12:54:38 Eckert, Coralie25.10 11:24:00 PSG Future25.10 12:33:22 stenhagen
25.10 12:54:34 Mayr, Anna25.10 11:24:00 richellieu25.10 12:33:22 bommersheim
25.10 12:54:33 Gick, Natascha25.10 11:23:57 ESH Paulchen25.10 12:33:19 dirnau 2010
25.10 12:54:30 jens rensen25.10 11:23:45 Daylight-wake25.10 12:33:16 reitturnier 2011www.fn-neon.de
25.10 12:54:29 stelling, isabell25.10 11:23:43 Fer Noir25.10 12:33:15 2010-07-24 Dessau
25.10 12:54:27 schermer, Jessica25.10 11:23:33 Liza Minelli 1625.10 12:33:05 SAlzm
25.10 12:54:27 eleftherios giannoussis25.10 11:23:08 Dunnigan25.10 12:32:58 bust
25.10 12:54:17 Konrad, Helmut25.10 11:22:47 dior 13025.10 12:32:55 Hilsbach 2010
25.10 12:54:21 Kohl, Fridolin25.10 11:22:43 Mara 14625.10 12:32:47 springtunier hövelhof
25.10 12:54:20 Christiaans, Lara-Maria25.10 11:22:43 Thoms25.10 12:32:35 lintorf
25.10 12:54:19 kerstin jacobi25.10 11:21:03 Grannox S25.10 12:32:13 Dressur-u.Springturnier
25.10 12:54:18 rebecca sch25.10 11:20:52 Rivano Hit25.10 12:32:07 Schwanhiem
25.10 12:54:14 steffen fiedler25.10 11:20:48 Friderika25.10 12:31:47 PSC Neudorf
25.10 12:54:13 füllgraebe, faye25.10 11:20:38 Freestyle 3925.10 12:31:41 esbeck freden
25.10 12:54:09 dorow, barbara25.10 11:19:59 fraeulein florence25.10 12:31:38 Schaafheim
25.10 12:54:03 laurisch, petra25.10 11:19:16 PBM Cesano s Boy25.10 12:31:38 schapow
25.10 12:54:01 Kate MOORE (AUS)25.10 11:18:56 Liebling W25.10 12:31:36 wardenburg
25.10 12:54:00 Pankow, Lilly25.10 11:18:12 Cassandro 3525.10 12:31:36 reitturnier G
25.10 12:53:58 jodefine von heu25.10 11:17:58 Little lin S25.10 12:31:29 Diessen/Obb.
25.10 12:53:56 Marion Fenner25.10 11:17:23 Prerie Lady25.10 12:31:20 Reitertage 2013
25.10 12:53:55 Bruncic, Anja25.10 11:16:58 Pik a ma Cherie25.10 12:31:16 reitertage bernkastel
25.10 12:53:50 Viehrig, Ina25.10 11:16:54 Colour Paint25.10 12:31:15 issum sevelen
25.10 12:53:47 susanne krohn25.10 11:16:53 Don Boo25.10 12:31:11 Sigmaringen Paulterhof
25.10 12:53:46 Saakel,25.10 11:16:28 Lucky Boy 20925.10 12:31:06 Auetal- Rehren
25.10 12:53:46 Ekaterina ORLOVA (RUS)25.10 11:15:49 Countach 425.10 12:31:05 noschkowitz 2012
25.10 12:53:44 Thomaschek, Jaqueline25.10 11:15:41 contarini25.10 12:30:56 Thüle
25.10 12:53:43 jürgen finkler25.10 11:14:27 Dustin 24125.10 12:30:49 vlotho-exther
25.10 12:53:42 josten, lana25.10 11:14:12 Waleria25.10 12:30:36 reittunier bockleben
25.10 12:53:40 staff-reizenstein, julius25.10 11:14:09 nosferatu25.10 12:30:34 schneppenheimcup
25.10 12:53:39 Tobeck Hannah25.10 11:13:05 Wambo B25.10 12:30:33 Laubach 2010
25.10 12:53:38 Reitsamer, Robin25.10 11:12:55 Gitano 38425.10 12:30:31 gotha boxberg
25.10 12:53:33 isabel weber25.10 11:12:39 Chicos Boy von M.25.10 12:30:31 reiturnier
25.10 12:53:32 Steinborn, Anna Lena25.10 11:11:34 Lana 10725.10 12:30:27 kleinroschaden
25.10 12:53:31 deiters christoph25.10 11:11:29 Rubinio 2025.10 12:30:01 Wellington tunirt
25.10 12:53:29 Ovenhausen, Jürgen25.10 11:10:10 löwenherz25.10 12:29:21 echen scharnebeck
25.10 12:53:29 Stübiger, Nicole25.10 11:09:59 Frappucchino25.10 12:29:19 Pfarrkirchen/Ndb.
25.10 12:53:28 zimny, petra25.10 11:09:49 Shanghai25.10 12:29:17 19.3.11
25.10 12:53:27 Raedecke-Bender, Corinna25.10 11:09:38 lancaster 13625.10 12:29:09 charlottenhof
25.10 12:53:26 gierse, jennifer25.10 11:09:26 Mirabelle 5925.10 12:29:07 reitturnier k
25.10 12:53:26 Dunayski, Lina c/o Bergmann25.10 11:09:20 Palio GO25.10 12:28:54 Neukirchen/ Freiberg
25.10 12:53:17 hofmann, jennifer25.10 11:08:44 seny25.10 12:28:01 Osterturnier Olympiareiterstadion
25.10 12:53:13 Lieschke, Simone25.10 11:07:43 Lord Leopold 1125.10 12:27:56 Lembeck 2010
25.10 12:53:13 Oellinger, Vreni25.10 11:07:13 Wolkenelfe25.10 12:27:35 Etzdorf
25.10 12:53:12 Vera MIKAT (GER)25.10 11:06:34 annelie nisch25.10 12:27:20 Benz
25.10 12:53:09 pasch, jutta25.10 11:06:11 frh schorsch25.10 12:27:14 reitturniert
25.10 12:53:09 Kerry BROWNE (RSA)25.10 11:05:46 Latina S 325.10 12:27:11 fuchsjagd
25.10 12:53:07 moeller, juergen25.10 11:05:41 Pilgrim 2925.10 12:27:07 kostenlostesten
25.10 12:53:06 Alison KELLY - COATES25.10 11:04:00 Cansis Boy25.10 12:26:59 frohnau
25.10 12:53:05 Grie25.10 11:03:55 Monello 725.10 12:26:41 Tturnier Nordwohlde
25.10 12:53:05 philipp hensel25.10 11:03:38 Romadour25.10 12:26:33 Schüttorf
25.10 12:53:02 jeni, isabell25.10 11:02:13 smilla p25.10 12:26:20 reitanlage k
25.10 12:52:55 Ristl, Jessica25.10 11:01:59 Maranello 225.10 12:26:07 walzbachtal